When you browse on this site, cookies collect data to enhance your experience and personalize the content and advertising you see.
Visit our Privacy Policy to learn more. By continuing to use the site, you agree to this use of cookies and data.
  • In Hungary
  • List of Countries
  • For 7 days
  • Water Temperature
  • Satellite Maps
  • Weather Map
  • News
  • Weather Widgets
  • user-avatar
    Login

    Hourly Weather Novoeldyakovo

    Today, 24 January, Thursday

    Time Temperature Precipitation Wind Pressure Humidity
    00:00 -26°C° 0 mm 2 mps 756 mmHg 97%
    01:00 -26°C° 0 mm 2 mps 756 mmHg 97%
    02:00 -26°C° 0 mm 2 mps 757 mmHg 97%
    03:00 -26°C° 0 mm 2 mps 757 mmHg 97%
    04:00 -25°C° 0 mm 2 mps 757 mmHg 97%
    05:00 -25°C° 0 mm 2 mps 757 mmHg 97%
    06:00 -26°C° 0 mm 2 mps 758 mmHg 97%
    07:00 -26°C° 0 mm 2 mps 758 mmHg 97%
    08:00 -26°C° 0 mm 2 mps 758 mmHg 97%
    09:00 -26°C° 0 mm 2 mps 759 mmHg 97%
    10:00 -26°C° 0 mm 2 mps 759 mmHg 97%
    11:00 -25°C° 0 mm 2 mps 759 mmHg 96%
    12:00 -25°C° 0 mm 3 mps 759 mmHg 95%
    13:00 -24°C° 0 mm 3 mps 759 mmHg 95%
    14:00 -24°C° 0 mm 3 mps 759 mmHg 95%
    15:00 -24°C° 0 mm 3 mps 759 mmHg 95%
    16:00 -25°C° 0 mm 4 mps 758 mmHg 95%
    17:00 -25°C° 0 mm 4 mps 758 mmHg 95%
    18:00 -25°C° 0 mm 4 mps 758 mmHg 94%
    19:00 -25°C° 0 mm 4 mps 758 mmHg 93%
    20:00 -25°C° 0 mm 5 mps 757 mmHg 92%
    21:00 -25°C° 0 mm 5 mps 756 mmHg 92%
    22:00 -24°C° 0 mm 5 mps 755 mmHg 91%
    23:00 -23°C° 0.3 mm 6 mps 754 mmHg 92%

    Tomorrow, 25 January, Friday

    Time Temperature Precipitation Wind Pressure Humidity
    00:00 -22°C° 0.3 mm 6 mps 754 mmHg 93%
    01:00 -21°C° 0.3 mm 7 mps 753 mmHg 93%
    02:00 -19°C° 0.4 mm 7 mps 752 mmHg 93%
    03:00 -18°C° 0.4 mm 7 mps 750 mmHg 92%
    04:00 -17°C° 0.4 mm 7 mps 749 mmHg 91%
    05:00 -17°C° 0.3 mm 7 mps 749 mmHg 91%
    06:00 -17°C° 0.3 mm 7 mps 748 mmHg 91%
    07:00 -15°C° 0.3 mm 6 mps 747 mmHg 91%
    08:00 -15°C° 0.3 mm 6 mps 746 mmHg 92%
    09:00 -15°C° 0.3 mm 6 mps 746 mmHg 92%
    10:00 -14°C° 0.3 mm 5 mps 746 mmHg 92%
    11:00 -13°C° 0.3 mm 5 mps 745 mmHg 92%
    12:00 -13°C° 0.3 mm 5 mps 745 mmHg 91%
    13:00 -13°C° 0.3 mm 5 mps 745 mmHg 91%
    14:00 -14°C° 0.1 mm 5 mps 745 mmHg 90%
    15:00 -14°C° 0.1 mm 5 mps 746 mmHg 89%
    16:00 -16°C° 0.1 mm 6 mps 746 mmHg 88%
    17:00 -18°C° 0 mm 6 mps 747 mmHg 89%
    18:00 -20°C° 0 mm 6 mps 748 mmHg 90%
    19:00 -21°C° 0 mm 5 mps 749 mmHg 91%
    20:00 -22°C° 0 mm 5 mps 750 mmHg 93%
    21:00 -24°C° 0 mm 5 mps 751 mmHg 94%
    22:00 -25°C° 0 mm 5 mps 752 mmHg 95%
    23:00 -25°C° 0 mm 4 mps 753 mmHg 95%

    Day after tomorrow, 26 January, Saturday

    Time Temperature Precipitation Wind Pressure Humidity
    00:00 -26°C° 0 mm 4 mps 753 mmHg 96%
    01:00 -27°C° 0 mm 4 mps 754 mmHg 97%
    02:00 -29°C° 0 mm 4 mps 755 mmHg 97%
    03:00 -29°C° 0 mm 4 mps 755 mmHg 97%
    04:00 -29°C° 0 mm 3 mps 756 mmHg 98%
    05:00 -29°C° 0 mm 3 mps 756 mmHg 98%
    06:00 -30°C° 0 mm 3 mps 757 mmHg 98%
    07:00 -30°C° 0 mm 3 mps 757 mmHg 98%
    08:00 -30°C° 0 mm 3 mps 758 mmHg 98%
    09:00 -28°C° 0 mm 2 mps 759 mmHg 98%
    10:00 -28°C° 0 mm 2 mps 759 mmHg 98%
    11:00 -26°C° 0 mm 2 mps 759 mmHg 97%
    12:00 -25°C° 0 mm 2 mps 760 mmHg 96%
    13:00 -21°C° 0 mm 1 mps 760 mmHg 96%
    14:00 -24°C° 0 mm 2 mps 760 mmHg 96%
    15:00 -24°C° 0 mm 2 mps 760 mmHg 96%
    16:00 -25°C° 0 mm 2 mps 761 mmHg 96%
    17:00 -26°C° 0 mm 2 mps 761 mmHg 96%
    18:00 -26°C° 0 mm 2 mps 761 mmHg 96%
    19:00 -24°C° 0 mm 1 mps 761 mmHg 96%
    20:00 -24°C° 0 mm 1 mps 761 mmHg 95%
    21:00 -24°C° 0 mm 1 mps 761 mmHg 95%
    22:00 -24°C° 0 mm 1 mps 761 mmHg 94%
    23:00 -27°C° 0 mm 2 mps 761 mmHg 94%

    27 January, Sunday

    Time Temperature Precipitation Wind Pressure Humidity
    00:00 -27°C° 0 mm 2 mps 761 mmHg 93%
    01:00 -27°C° 0 mm 2 mps 761 mmHg 93%
    02:00 -27°C° 0 mm 2 mps 761 mmHg 92%
    03:00 -27°C° 0 mm 2 mps 761 mmHg 91%
    04:00 -27°C° 0 mm 2 mps 761 mmHg 90%
    05:00 -26°C° 0 mm 2 mps 761 mmHg 88%
    06:00 -26°C° 0 mm 2 mps 761 mmHg 86%
    07:00 -25°C° 0 mm 2 mps 760 mmHg 84%
    08:00 -25°C° 0 mm 3 mps 760 mmHg 83%
    09:00 -24°C° 0 mm 3 mps 760 mmHg 83%
    10:00 -23°C° 0 mm 3 mps 760 mmHg 82%
    11:00 -21°C° 0 mm 3 mps 759 mmHg 80%
    12:00 -19°C° 0 mm 3 mps 759 mmHg 79%
    13:00 -19°C° 0 mm 4 mps 758 mmHg 77%
    14:00 -19°C° 0 mm 4 mps 758 mmHg 79%
    15:00 -19°C° 0 mm 4 mps 757 mmHg 80%
    16:00 -19°C° 0 mm 4 mps 757 mmHg 81%
    17:00 -18°C° 0 mm 4 mps 757 mmHg 80%
    18:00 -17°C° 0 mm 4 mps 756 mmHg 80%
    19:00 -17°C° 0 mm 5 mps 756 mmHg 79%
    20:00 -17°C° 0 mm 5 mps 756 mmHg 78%
    21:00 -17°C° 0 mm 5 mps 756 mmHg 77%
    22:00 -17°C° 0 mm 5 mps 755 mmHg 76%
    23:00 -18°C° 0 mm 5 mps 755 mmHg 75%

    28 January, Monday

    Time Temperature Precipitation Wind Pressure Humidity
    00:00 -18°C° 0 mm 5 mps 755 mmHg 75%
    01:00 -19°C° 0 mm 5 mps 755 mmHg 75%
    02:00 -19°C° 0 mm 5 mps 754 mmHg 75%
    03:00 -19°C° 0 mm 5 mps 754 mmHg 75%
    04:00 -20°C° 0 mm 5 mps 754 mmHg 75%
    05:00 -20°C° 0 mm 5 mps 754 mmHg 75%
    06:00 -19°C° 0 mm 4 mps 753 mmHg 75%
    07:00 -19°C° 0 mm 4 mps 753 mmHg 75%
    08:00 -18°C° 0 mm 4 mps 752 mmHg 74%
    09:00 -18°C° 0 mm 4 mps 752 mmHg 74%
    10:00 -17°C° 0 mm 4 mps 752 mmHg 73%
    11:00 -16°C° 0 mm 4 mps 751 mmHg 73%
    12:00 -15°C° 0 mm 4 mps 751 mmHg 72%
    13:00 -12°C° 0 mm 4 mps 750 mmHg 72%
    14:00 -12°C° 0 mm 4 mps 750 mmHg 74%
    15:00 -12°C° 0 mm 4 mps 749 mmHg 77%
    16:00 -12°C° 0 mm 3 mps 749 mmHg 79%
    17:00 -12°C° 0 mm 3 mps 748 mmHg 79%
    18:00 -12°C° 0 mm 4 mps 748 mmHg 79%
    19:00 -14°C° 0 mm 4 mps 748 mmHg 79%
    20:00 -14°C° 0 mm 4 mps 747 mmHg 80%
    21:00 -14°C° 0 mm 4 mps 747 mmHg 81%
    22:00 -12°C° 0 mm 4 mps 747 mmHg 81%
    23:00 -12°C° 0.1 mm 4 mps 747 mmHg 84%

    29 January, Tuesday

    Time Temperature Precipitation Wind Pressure Humidity
    00:00 -11°C° 0.1 mm 4 mps 747 mmHg 87%
    01:00 -11°C° 0.1 mm 5 mps 746 mmHg 90%
    02:00 -11°C° 0.2 mm 4 mps 746 mmHg 91%
    03:00 -11°C° 0.2 mm 4 mps 746 mmHg 93%
    04:00 -11°C° 0.2 mm 4 mps 746 mmHg 94%
    05:00 -10°C° 0.3 mm 3 mps 745 mmHg 94%
    06:00 -10°C° 0.3 mm 3 mps 745 mmHg 95%
    07:00 -10°C° 0.3 mm 3 mps 745 mmHg 95%
    08:00 -10°C° 0 mm 3 mps 745 mmHg 95%
    09:00 -12°C° 0 mm 3 mps 745 mmHg 95%
    10:00 -12°C° 0 mm 3 mps 745 mmHg 95%
    11:00 -12°C° 0 mm 3 mps 745 mmHg 94%
    12:00 -9°C° 0 mm 2 mps 746 mmHg 93%
    13:00 -9°C° 0 mm 2 mps 746 mmHg 92%
    14:00 -9°C° 0 mm 2 mps 746 mmHg 93%
    15:00 -9°C° 0 mm 2 mps 746 mmHg 93%
    16:00 -8°C° 0 mm 1 mps 746 mmHg 94%
    17:00 -9°C° 0 mm 1 mps 747 mmHg 94%
    18:00 -10°C° 0 mm 1 mps 747 mmHg 95%
    19:00 -11°C° 0 mm 0 mps 747 mmHg 96%
    20:00 -11°C° 0 mm 0 mps 748 mmHg 96%
    21:00 -11°C° 0 mm 0 mps 748 mmHg 96%
    22:00 -11°C° 0 mm 0 mps 748 mmHg 96%
    23:00 -11°C° 0 mm 0 mps 749 mmHg 96%
    Show more